[[{"header":{"parameterUnit":"m.s-1","parameterCategory":1,"la1":30.2991,"la2":30.254,"lo1":-89.0895,"lo2":-89.0444,"dy":0.0017,"dx":0.0017,"nx":28,"ny":28,"refTime":"2024-08-09T09:00:00:Z","depth":0,"parameterNumber":2,"parameterNumberName":"U-component_of_WINDS"},"data":[0,0,0,0,0,0,0,0,0,0,0,0,0,0,0,0,0,0,0,0,0,0,0,0,0,0,0,0,0,0,0,0,0,0,0,0,0,0,0,0,0,0,0,0,0,0,0,0,0,0,0,0,0,0,0,0,0,0,-0.2333,-0.2332,0,-0.2248,-0.2247,-0.2246,-0.2145,-0.2144,-0.2142,-0.2141,-0.2052,-0.2051,-0.205,0,0,0,0,0,0,0,0,0,0,0,0,0,-0.2408,-0.2407,-0.2333,-0.2332,-0.2331,-0.2248,-0.2247,-0.2246,-0.2145,-0.2143,-0.2142,-0.214,-0.2053,-0.2051,-0.205,0,0,0,0,0,0,0,0,0,0,0,0,0,-0.2354,-0.2406,-0.2333,-0.2271,-0.2265,-0.2248,-0.2247,-0.2245,-0.2146,-0.2143,-0.2141,-0.2139,-0.2053,-0.2052,-0.205,-0.2088,0,0,-0.2046,-0.2045,0,0,0,0,0,0,0,0,-0.2357,-0.2352,-0.2281,-0.2275,-0.2268,-0.2205,-0.2241,-0.2193,-0.2146,-0.2191,-0.2141,-0.2138,-0.2105,-0.2099,-0.2088,-0.2084,-0.208,-0.2046,-0.2045,-0.2044,-0.2044,0,0,0,0,0,0,0,-0.2361,-0.2355,-0.2299,-0.228,-0.2272,-0.2247,-0.2237,-0.2231,-0.2162,-0.2187,-0.2179,-0.2171,-0.2101,-0.209,-0.2085,-0.2079,-0.2046,-0.2045,-0.2044,-0.2043,-0.2102,-0.2104,0,0,0,0,0,0,-0.2374,-0.2358,-0.2302,-0.2297,-0.2308,-0.2247,-0.2236,-0.2227,-0.2162,-0.2149,-0.2173,-0.2166,-0.2093,-0.2087,-0.2082,-0.2122,-0.2044,-0.2043,-0.2042,-0.2099,-0.2102,-0.2105,0,0,0,0,0,0,-0.2376,-0.237,-0.2305,-0.2325,-0.2315,-0.2249,-0.224,-0.2227,-0.2216,-0.2151,-0.2138,-0.2174,-0.2091,-0.2084,-0.2087,-0.2118,-0.2043,-0.2041,-0.2096,-0.21,-0.2103,-0.2204,0,0,0,0,0,0,-0.2379,-0.2372,-0.2386,-0.2327,-0.2315,-0.2313,-0.2241,-0.2227,-0.2214,-0.2205,-0.2149,-0.2137,-0.2089,-0.209,-0.2086,-0.2115,-0.204,-0.2093,-0.2098,-0.2102,-0.2198,-0.2211,-0.2222,0,0,0,0,0,-0.2382,-0.2417,-0.2387,-0.2381,-0.2331,-0.2315,-0.2308,-0.2252,-0.2217,-0.223,-0.2188,-0.2139,-0.2115,-0.2091,-0.2086,-0.2115,-0.2091,-0.2097,-0.2102,-0.2192,-0.2208,-0.2221,0,0,0,0,0,0,-0.2481,-0.2408,-0.2374,-0.2391,-0.236,-0.2298,-0.2314,-0.227,-0.2248,-0.2241,-0.2171,-0.2159,-0.2171,-0.2143,-0.2118,-0.2148,-0.2096,-0.2101,-0.2166,-0.2181,-0.2193,-0.22,-0.2039,0,0,0,0,0,-0.2505,-0.2499,-0.2435,-0.2456,-0.2443,-0.2381,-0.2372,-0.2331,-0.2296,-0.2283,-0.2241,-0.2209,-0.2194,-0.2185,-0.2168,-0.2192,-0.2179,-0.2209,-0.2221,-0.2232,-0.2237,-0.2248,-0.2261,-0.2122,-0.2122,-0.2122,0,0,-0.2554,-0.2514,-0.2514,-0.2475,-0.2447,-0.2442,-0.2371,-0.2368,-0.2364,-0.2282,-0.2284,-0.2252,-0.2211,-0.2226,-0.223,-0.2202,-0.2272,-0.2238,-0.2247,-0.2247,-0.2255,-0.2269,-0.228,-0.2126,-0.2125,-0.2125,0,0,-0.2642,-0.261,-0.2625,-0.2598,-0.2555,-0.2514,-0.2518,-0.2462,-0.2438,-0.2439,-0.2377,-0.237,-0.2346,-0.232,-0.2303,-0.2381,-0.2335,-0.2377,-0.244,-0.2452,-0.2463,-0.2473,-0.2501,-0.2512,-0.2382,-0.2382,-0.2382,0,-0.2709,-0.2699,-0.2638,-0.264,-0.2625,-0.255,-0.2565,-0.2541,-0.2495,-0.2486,-0.2455,-0.2424,-0.2391,-0.2399,-0.2418,-0.2406,-0.2409,-0.2384,-0.2467,-0.2475,-0.2483,-0.251,-0.2521,-0.2388,-0.2387,-0.2386,-0.2386,0,-0.2784,-0.2778,-0.2795,-0.2753,-0.274,-0.2748,-0.2687,-0.2681,-0.2641,-0.2603,-0.2604,-0.2562,-0.2536,-0.2534,-0.2495,-0.2536,-0.2521,-0.2479,-0.2426,-0.2503,-0.2527,-0.2537,-0.2395,-0.2394,-0.2392,-0.2391,0,0,-0.2933,-0.2857,-0.2864,-0.2845,-0.2792,-0.2786,-0.2791,-0.2765,-0.2761,-0.2731,-0.2734,-0.2715,-0.2676,-0.2658,-0.2615,-0.2625,-0.2691,-0.2582,-0.258,-0.2605,-0.2735,-0.2768,-0.2781,-0.2659,-0.2661,-0.2662,-0.2739,0,-0.3012,-0.3016,-0.2961,-0.298,-0.2975,-0.2904,-0.2907,-0.2876,-0.284,-0.283,-0.2789,-0.2778,-0.2727,-0.2716,-0.2723,-0.2682,-0.2716,-0.2675,-0.2662,-0.2662,-0.2676,-0.2793,-0.2828,-0.2902,-0.2748,-0.275,-0.2751,0,-0.3105,-0.3082,-0.3101,-0.3048,-0.3044,-0.3048,-0.302,-0.3011,-0.2973,-0.2946,-0.2926,-0.2877,-0.2877,-0.2826,-0.2826,-0.2799,-0.279,-0.2769,-0.277,-0.2768,-0.2712,-0.2796,-0.2924,-0.2937,-0.2765,-0.2763,-0.2762,0,-0.3214,-0.3187,-0.3195,-0.318,-0.3118,-0.3123,-0.3097,-0.3057,-0.3045,-0.3021,-0.3012,-0.2988,-0.2975,-0.2957,-0.2902,-0.2869,-0.2909,-0.2852,-0.2887,-0.2889,-0.29,-0.29,-0.3031,-0.2892,-0.2892,-0.2892,-0.2891,0,-0.3309,-0.3324,-0.3243,-0.3248,-0.3263,-0.3198,-0.3214,-0.3181,-0.3146,-0.3144,-0.308,-0.3079,-0.3006,-0.2997,-0.2954,-0.2961,-0.2955,-0.2934,-0.2923,-0.2941,-0.2944,-0.2935,-0.2929,-0.2894,-0.2894,-0.2893,-0.2893,0,-0.3434,-0.338,-0.3384,-0.3325,-0.3311,-0.3324,-0.3273,-0.3275,-0.3235,-0.3233,-0.3229,-0.3166,-0.3152,-0.3096,-0.3067,-0.3038,-0.306,-0.3037,-0.3073,-0.3066,-0.3105,-0.3103,-0.3236,-0.325,-0.3101,-0.3103,-0.3104,0,-0.3499,-0.3509,-0.3451,-0.3445,-0.3422,-0.3413,-0.3401,-0.3337,-0.3327,-0.3285,-0.3293,-0.3273,-0.3254,-0.3235,-0.3187,-0.3165,-0.3142,-0.319,-0.3138,-0.3156,-0.3144,-0.3145,-0.3146,-0.3202,-0.3204,-0.3205,-0.3207,0,-0.3621,-0.3594,-0.3579,-0.3555,-0.3542,-0.3519,-0.3493,-0.3492,-0.3421,-0.3413,-0.3398,-0.3384,-0.3355,-0.3337,-0.3307,-0.328,-0.3232,-0.3223,-0.323,-0.3249,-0.3271,-0.3261,-0.3105,-0.3221,-0.3219,-0.3218,-0.3217,-0.3217,-0.3718,-0.3724,-0.3685,-0.367,-0.3644,-0.3621,-0.362,-0.358,-0.3567,-0.3539,-0.3502,-0.3492,-0.3454,-0.3409,-0.3386,-0.3377,-0.335,-0.336,-0.3363,-0.3367,-0.3376,-0.3271,-0.3371,-0.337,-0.337,-0.337,-0.3369,0,-0.3838,-0.3809,-0.3796,-0.3762,-0.3751,-0.3706,-0.3675,-0.3668,-0.3661,-0.3629,-0.3612,-0.3595,-0.3577,-0.3528,-0.3505,-0.3507,-0.3485,-0.3503,-0.3503,-0.3498,-0.3401,-0.3398,-0.3522,-0.3522,-0.3522,-0.3522,-0.3522,-0.3522,-0.3899,-0.3907,-0.3875,-0.3869,-0.3839,-0.383,-0.3816,-0.3794,-0.3769,-0.3753,-0.3738,-0.3706,-0.3667,-0.3641,-0.3623,-0.3608,-0.3604,-0.363,-0.3609,-0.3519,-0.3505,-0.3491,-0.3488,-0.3629,-0.3629,-0.3707,-0.3708,-0.3709]},{"header":{"parameterUnit":"m.s-1","parameterCategory":1,"la1":30.2991,"la2":30.254,"lo1":-89.0895,"lo2":-89.0444,"dy":0.0017,"dx":0.0017,"nx":28,"ny":28,"refTime":"2024-08-09T09:00:00:Z","depth":0,"parameterNumber":3,"parameterNumberName":"V-component_of_WINDS"},"data":[0,0,0,0,0,0,0,0,0,0,0,0,0,0,0,0,0,0,0,0,0,0,0,0,0,0,0,0,0,0,0,0,0,0,0,0,0,0,0,0,0,0,0,0,0,0,0,0,0,0,0,0,0,0,0,0,0,0,0.1521,0.1521,0,0.1522,0.1522,0.1522,0.1526,0.1526,0.1526,0.1526,0.1528,0.1528,0.1528,0,0,0,0,0,0,0,0,0,0,0,0,0,0.1521,0.1521,0.1521,0.1521,0.1521,0.1522,0.1522,0.1522,0.1526,0.1526,0.1526,0.1526,0.1528,0.1528,0.1528,0,0,0,0,0,0,0,0,0,0,0,0,0,0.1522,0.1521,0.1521,0.1523,0.1523,0.1522,0.1522,0.1522,0.1526,0.1526,0.1526,0.1526,0.1528,0.1528,0.1528,0.1526,0,0,0.1528,0.1528,0,0,0,0,0,0,0,0,0.1522,0.1522,0.1523,0.1523,0.1523,0.1524,0.1523,0.1524,0.1526,0.1525,0.1526,0.1526,0.1527,0.1527,0.1527,0.1526,0.1526,0.1528,0.1528,0.1528,0.1528,0,0,0,0,0,0,0,0.1522,0.1522,0.1522,0.1523,0.1523,0.1524,0.1524,0.1523,0.1525,0.1525,0.1525,0.1525,0.1527,0.1527,0.1527,0.1526,0.1528,0.1528,0.1528,0.1528,0.1523,0.1523,0,0,0,0,0,0,0.1521,0.1522,0.1522,0.1522,0.1523,0.1523,0.1524,0.1524,0.1525,0.1525,0.1525,0.1525,0.1527,0.1527,0.1527,0.1524,0.1528,0.1528,0.1528,0.1523,0.1523,0.1522,0,0,0,0,0,0,0.1521,0.1521,0.1521,0.1522,0.1522,0.1523,0.1523,0.1523,0.1524,0.1525,0.1526,0.1525,0.1527,0.1527,0.1526,0.1524,0.1528,0.1528,0.1523,0.1523,0.1523,0.1518,0,0,0,0,0,0,0.1521,0.1521,0.1521,0.1522,0.1522,0.152,0.1523,0.1523,0.1523,0.1524,0.1525,0.1525,0.1527,0.1526,0.1526,0.1524,0.1528,0.1523,0.1523,0.1523,0.1518,0.1518,0.1517,0,0,0,0,0,0.1521,0.152,0.1521,0.1521,0.1521,0.152,0.152,0.1522,0.1523,0.1522,0.1523,0.1525,0.1524,0.1526,0.1526,0.1524,0.1523,0.1523,0.1523,0.1519,0.1518,0.1517,0,0,0,0,0,0,0.1519,0.152,0.1521,0.152,0.152,0.1521,0.152,0.1521,0.1521,0.1522,0.1524,0.1524,0.1522,0.1523,0.1525,0.1521,0.1524,0.1524,0.1521,0.152,0.152,0.1519,0.1528,0,0,0,0,0,0.1519,0.1518,0.1519,0.1517,0.1517,0.1518,0.1518,0.1519,0.152,0.152,0.1521,0.1521,0.1521,0.1521,0.152,0.1518,0.1518,0.1517,0.1516,0.1516,0.1516,0.1513,0.1513,0.1521,0.1521,0.1521,0,0,0.1517,0.1518,0.1517,0.1517,0.1517,0.1516,0.1519,0.1518,0.1517,0.152,0.1519,0.1519,0.152,0.1518,0.1517,0.1518,0.1513,0.1516,0.1515,0.1515,0.1513,0.1512,0.1511,0.1521,0.1521,0.1521,0,0,0.1514,0.1515,0.1513,0.1513,0.1513,0.1513,0.1513,0.1514,0.1514,0.1512,0.1514,0.1513,0.1513,0.1513,0.1513,0.1508,0.151,0.1508,0.1505,0.1503,0.1502,0.1502,0.1499,0.1498,0.1508,0.1508,0.1508,0,0.1513,0.1511,0.1512,0.1511,0.151,0.1512,0.151,0.151,0.151,0.151,0.1511,0.151,0.1511,0.1508,0.1507,0.1507,0.1506,0.1508,0.1502,0.1502,0.1501,0.1499,0.1498,0.1508,0.1508,0.1508,0.1508,0,0.1509,0.1508,0.1506,0.1505,0.1505,0.1503,0.1504,0.1503,0.1504,0.1504,0.1502,0.1503,0.1502,0.1502,0.1503,0.1499,0.15,0.1502,0.1504,0.15,0.1498,0.1497,0.1507,0.1507,0.1507,0.1508,0,0,0.1506,0.1504,0.1504,0.1502,0.1502,0.1501,0.1499,0.1498,0.1497,0.1497,0.1495,0.1494,0.1495,0.1495,0.1496,0.1494,0.1489,0.1496,0.1496,0.1494,0.1484,0.1482,0.1481,0.149,0.149,0.149,0.1484,0,0.1502,0.1498,0.1499,0.1495,0.1493,0.1494,0.1493,0.1492,0.1492,0.1491,0.1491,0.149,0.1492,0.1492,0.149,0.149,0.1487,0.1491,0.1488,0.1488,0.1488,0.148,0.1479,0.1473,0.1483,0.1483,0.1483,0,0.1498,0.1496,0.1492,0.149,0.149,0.1488,0.1486,0.1485,0.1484,0.1484,0.1483,0.1484,0.1482,0.1485,0.1482,0.1484,0.1483,0.1483,0.1483,0.1482,0.1485,0.1479,0.1471,0.147,0.1482,0.1482,0.1482,0,0.1495,0.1492,0.1488,0.1488,0.1486,0.1484,0.1484,0.1483,0.1482,0.148,0.1479,0.1478,0.1477,0.1476,0.1476,0.1478,0.1473,0.1476,0.1472,0.1472,0.1471,0.1471,0.1462,0.1471,0.1471,0.1471,0.1471,0,0.149,0.1488,0.1487,0.1485,0.1481,0.1482,0.1478,0.1478,0.1477,0.1475,0.1476,0.1474,0.1475,0.1473,0.1473,0.147,0.147,0.147,0.147,0.1469,0.1469,0.1468,0.1468,0.1471,0.1471,0.1471,0.1471,0,0.1487,0.1486,0.1482,0.148,0.148,0.1477,0.1476,0.1474,0.1473,0.147,0.147,0.1469,0.1467,0.1467,0.1465,0.1465,0.1461,0.1462,0.1461,0.1461,0.1457,0.1457,0.1447,0.1445,0.1456,0.1456,0.1456,0,0.1484,0.1482,0.1479,0.1477,0.1476,0.1473,0.1472,0.1471,0.147,0.1467,0.1466,0.1463,0.1461,0.1457,0.1457,0.1454,0.1455,0.1451,0.1455,0.1454,0.1454,0.1454,0.1453,0.1451,0.1451,0.145,0.145,0,0.1479,0.1478,0.1475,0.1472,0.147,0.1468,0.1465,0.1464,0.1463,0.1461,0.1458,0.1457,0.1453,0.1451,0.1448,0.1448,0.1449,0.1449,0.1448,0.1448,0.1447,0.1446,0.1458,0.145,0.145,0.145,0.145,0.145,0.1475,0.1472,0.1469,0.1466,0.1464,0.1462,0.1459,0.1458,0.1455,0.1452,0.1452,0.1449,0.1447,0.1444,0.1443,0.144,0.1441,0.144,0.1439,0.1439,0.1438,0.1447,0.144,0.144,0.144,0.144,0.144,0,0.1469,0.1467,0.1464,0.146,0.1457,0.1457,0.1455,0.1452,0.1449,0.1447,0.1444,0.144,0.1437,0.1436,0.1433,0.1431,0.1431,0.143,0.143,0.143,0.1438,0.1438,0.143,0.143,0.143,0.143,0.143,0.143,0.1466,0.1461,0.146,0.1454,0.1452,0.1448,0.1446,0.1443,0.1441,0.1437,0.1434,0.1433,0.1431,0.1427,0.1425,0.1424,0.1423,0.1421,0.1421,0.1428,0.1429,0.143,0.1431,0.1421,0.1421,0.1414,0.1414,0.1413]}]]